CZ-3C DEB, 40817

Orbit data source: Space-Track

CZ-3C DEB, 40817 is space debris in HEO originally from a launch on Sun, 31 Oct 2010 UTC launched from the Xichang Space Center, China (XSC). Debris objects in space refer to the collection of defunct objects orbiting the Earth. Examples of debris include non-operational satellites, rocket bodies, and fragments generated from explosions, collisions, or faulty payload assembly.

Loading next visibility...
Identifier
40817, 2010-057AJ
Orbit
HEO
Country
Flag of CNCN / PRC
Related business
Manufacturer
CALT
Mission
Spacecraft
Bus & Motor
Unknown
Mass
Unknown
Launch date (UTC)
2010-10-31 (16 years ago)
Launch vehicle
Unknown
Launch site
Xichang Space Center, China (XSC)
Object type
Payload
Rocket body
Debris
Shape & HBR
Unknown shape, 0.1 m
Radar Cross Section
Medium (>0.1 m² and <1 m²)

Expand to show TLE details & history
Last TLE update: 17 hours ago

TLE from 17 hours ago
0 CZ-3C DEB
1 40817U 10057AJ  26263.92988263  .00000364  00000-0  72981-2 0  9991
2 40817  19.2247 124.5885 7171685 136.9936 309.3606  2.20044498 51402
Epoch: 2026-09-20T22:19Z
TLE epoch observation values (Epoch: 2026-09-20T22:19:01.859Z)
Latitude
0.00001°
Longitude
150.06778°
Altitude
19,115.676 km
Speed
3.912 km/s
True Right ascension
08h 18m 34s
True Declination
0° 00' 00"
Sunlit
Object was in daylight at epoch
Visualization orbit readout
Latitude
Unknown
Longitude
Unknown
Altitude
Unknown
Speed
Unknown
Apparent Right ascension
Unknown
Apparent Declination
Unknown
Sunlit
N/A
Visualization observer readout
Local Sidereal Time
08:08:18
Azimuth
Unknown
Elevation
Unknown
Doppler factor
Unknown
Orbital elements
Apogee altitude
36,504.74 km
Perigee altitude
685.019 km
Semi-major axis
24,973.017 km
Eccentricity
0.71717
Inclination
19.2247°
RAAN
124.5885°
Arg. of periapsis
136.9936°
True anomaly
222.99845°
Mean anomaly
309.3606°
Eccentric anomaly
268.28821°
Mean motion
0.54997 °/min
Orbital period
654.58 mins
BSTAR
0.0072981
Loading maneuver chart data...
Computing Atmospheric mass density...
Loading historical data...
Loading historical data...
Loading historical data...
Loading historical data...
Loading historical data...
Loading historical data...
Loading historical data...

Documentation

Showing up to 5 results
|